This demonstration page uses our WeatherBlox Daily Observations layout. Learn more.

Left ArrowRight Arrow

47.50024, -111.30081

Hourly Observations for May 24, 2019

Temp ( °F °C ) Dew Point ( °F °C ) Humidity (%) Winds ( mph kmh ) Pressure ( in mb ) Visibility ( mi km ) Precip ( " mm )
12:53 am 00:53 Clear 45 7.2 38 3.3 77 77 Calm 29.80 1009 10 16 0.00 0.00
1:53 am 01:53 Clear 43 6.1 37 2.8 80 80 E 5 7 29.78 1009 10 16 0.00 0.00
2:53 am 02:53 Clear 42 5.6 38 3.3 85 85 E 6 9 29.77 1008 10 16 0.00 0.00
3:53 am 03:53 Clear 43 6.1 39 3.9 86 86 E 6 9 29.75 1008 10 16 0.00 0.00
4:53 am 04:53 Clear 40 4.4 38 3.3 93 93 Calm 29.76 1008 10 16 0.00 0.00
5:53 am 05:53 Cloudy 42 5.6 38 3.3 85 85 Calm 29.76 1008 10 16 0.00 0.00
6:53 am 06:53 Cloudy 42 5.6 40 4.4 92 92 W 3 6 29.77 1008 10 16 0.00 0.00
7:53 am 07:53 Cloudy 44 6.7 41 5 89 89 W 5 7 29.77 1008 10 16 0.00 0.00
8:53 am 08:53 Mostly Sunny 48 8.9 41 5 77 77 Calm 29.78 1008 10 16 0.00 0.00
9:53 am 09:53 Sunny 52 11.1 41 5 66 66 Calm 29.79 1009 10 16 0.00 0.00
10:53 am 10:53 Mostly Sunny 56 13.3 43 6.1 62 62 VRB 3 6 29.77 1008 10 16 0.00 0.00
11:53 am 11:53 Mostly Cloudy 56 13.3 40 4.4 55 55 NNE 6 9 29.78 1009 10 16 0.00 0.00
12:53 pm 12:53 Mostly Sunny 61 16.1 41 5 48 48 undefined N/A 29.77 1008 10 16 0.00 0.00
1:53 pm 13:53 Mostly Sunny 62 16.7 38 3.3 41 41 NNE 6 9 29.76 1008 10 16 0.00 0.00
2:53 pm 14:53 Mostly Sunny 62 16.7 37 2.8 40 40 VRB 6 9 29.76 1008 10 16 0.00 0.00
3:53 pm 15:53 Mostly Sunny 63 17.2 38 3.3 40 40 VRB 5 7 29.75 1008 10 16 0.00 0.00
4:53 pm 16:53 Mostly Cloudy 64 17.8 37 2.8 37 37 VRB 5 7 29.75 1008 10 16 0.00 0.00
5:53 pm 17:53 Partly Cloudy 63 17.2 35 1.7 35 35 ENE 5 7 29.75 1007 10 16 0.00 0.00
6:53 pm 18:53 Cloudy 62 16.7 36 2.2 38 38 S 3 6 29.76 1008 10 16 0.00 0.00
7:53 pm 19:53 Mostly Cloudy 56 13.3 43 6.1 62 62 SW 13 20 29.79 1009 10 16 0.00 0.00
8:53 pm 20:53 Cloudy 54 12.2 42 5.6 64 64 SW 8 13 29.80 1009 10 16 0.00 0.00
9:53 pm 21:53 Cloudy 51 10.6 43 6.1 74 74 SW 6 9 29.82 1010 10 16 0.00 0.00
10:53 pm 22:53 Cloudy 49 9.4 43 6.1 80 80 S 5 7 29.82 1010 10 16 0.00 0.00
11:53 pm 23:53 Cloudy 48 8.9 43 6.1 83 83 SW 7 11 29.83 1010 10 16 0.00 0.00

Powered by AerisWeather